Casitas Lake Weather Center

Moon Phase Calendar



Casitas Lake Water Level
Online Cameras

 


      

Current Conditions in Oak View
1/20/2021 7:57:40 AM

60°F
Feels Like 43
Clear
Humidity
22%
Pressure
29.94"
Wind
20.7 mph (ENE)
Dew Point
22°F
UV Index
0/10 (Low)
Visibility
6 mi

Hourly Forecast

Date & Time Wed, Jan 20
7:00 AM
Wed, Jan 20
8:00 AM
Wed, Jan 20
9:00 AM
Wed, Jan 20
10:00 AM
Wed, Jan 20
11:00 AM
Wed, Jan 20
12:00 PM
Wed, Jan 20
1:00 PM
Wed, Jan 20
2:00 PM
Wed, Jan 20
3:00 PM
Wed, Jan 20
4:00 PM
Wed, Jan 20
5:00 PM
Wed, Jan 20
6:00 PM
Wed, Jan 20
7:00 PM
Wed, Jan 20
8:00 PM
Wed, Jan 20
9:00 PM
Wed, Jan 20
10:00 PM
Wed, Jan 20
11:00 PM
Thu, Jan 21
12:00 AM
Thu, Jan 21
1:00 AM
Thu, Jan 21
2:00 AM
Thu, Jan 21
3:00 AM
Thu, Jan 21
4:00 AM
Thu, Jan 21
5:00 AM
Thu, Jan 21
6:00 AM
Thu, Jan 21
7:00 AM
Thu, Jan 21
8:00 AM
Thu, Jan 21
9:00 AM
Thu, Jan 21
10:00 AM
Thu, Jan 21
11:00 AM
Thu, Jan 21
12:00 PM
Thu, Jan 21
1:00 PM
Thu, Jan 21
2:00 PM
Thu, Jan 21
3:00 PM
Thu, Jan 21
4:00 PM
Thu, Jan 21
5:00 PM
Thu, Jan 21
6:00 PM
Thu, Jan 21
7:00 PM
Thu, Jan 21
8:00 PM
Thu, Jan 21
9:00 PM
Thu, Jan 21
10:00 PM
Thu, Jan 21
11:00 PM
Fri, Jan 22
12:00 AM
Fri, Jan 22
1:00 AM
Fri, Jan 22
2:00 AM
Fri, Jan 22
3:00 AM
Fri, Jan 22
4:00 AM
Fri, Jan 22
5:00 AM
Fri, Jan 22
6:00 AM
Condition
Clear

Clear

Clear

Clear

Clear

Clear

Clear

Clear

Clear

Clear

Clear

Clear

Clear

Clear

Clear

Clear

Clear

Clear

Clear

Clear

Clear

Clear

Clear

Clear

Clear

Clear

Clear

Clear

Clear

Clear

Clear

Clear

Clear

Clear

Clear

Clear

Clear

Clouds

Clouds

Clouds

Clouds

Clouds

Clouds

Clouds

Clouds

Clouds

Clouds

Clouds
Temperature 60°F59°F61°F64°F67°F68°F69°F69°F68°F67°F62°F60°F59°F58°F58°F57°F57°F57°F57°F56°F56°F56°F56°F56°F56°F58°F63°F66°F67°F68°F68°F67°F66°F64°F59°F57°F57°F56°F56°F55°F54°F54°F53°F53°F53°F52°F51°F51°F
Feels Like 49°F50°F53°F56°F59°F60°F61°F61°F62°F61°F58°F54°F53°F52°F52°F51°F51°F51°F50°F50°F50°F50°F50°F50°F50°F53°F59°F61°F61°F61°F60°F60°F59°F58°F55°F53°F53°F52°F52°F51°F50°F49°F48°F48°F49°F49°F48°F47°F
Cloudiness 1%1%0%0%0%0%0%0%0%0%0%0%0%0%0%0%0%0%0%0%0%0%0%0%0%0%0%0%0%0%0%0%0%0%0%9%6%15%16%14%38%23%17%32%46%55%82%41%
Visibility 6 mi6 mi6 mi6 mi6 mi6 mi6 mi6 mi6 mi6 mi6 mi6 mi6 mi6 mi6 mi6 mi6 mi6 mi6 mi6 mi6 mi6 mi6 mi6 mi6 mi6 mi6 mi6 mi6 mi6 mi6 mi6 mi6 mi6 mi6 mi6 mi6 mi6 mi6 mi6 mi6 mi6 mi6 mi6 mi6 mi6 mi6 mi6 mi
Precipitation 0%0%0%0%0%0%0%0%0%0%0%0%0%0%0%0%0%0%0%0%0%0%0%0%0%0%0%0%0%0%0%0%0%0%0%0%0%0%0%0%0%0%0%0%0%0%0%0%
Humidity 22%32%33%35%32%31%32%32%32%34%41%44%45%45%46%47%48%48%48%47%47%47%47%46%46%42%34%29%26%25%26%29%32%36%46%49%48%47%46%46%46%47%48%48%48%50%52%54%
Dew Point 22°F30°F32°F36°F36°F37°F38°F38°F38°F38°F39°F38°F38°F37°F37°F38°F38°F38°F37°F37°F37°F36°F36°F36°F36°F36°F35°F33°F31°F31°F32°F34°F35°F37°F39°F38°F37°F36°F35°F35°F34°F34°F34°F34°F34°F34°F35°F35°F
Pressure 29.94"29.97"30.03"30.06"30.03"30"29.97"29.97"29.97"30"30"30"30.03"30.03"30.06"30.06"30.03"30.03"30.03"30.03"30.03"30.03"30.03"30.03"30.03"30.06"30.06"30.09"30.06"30.03"30"30"30"29.97"29.97"30"30"30"30"30"30"30"30"30"29.97"29.97"29.97"29.97"
Wind Speed 10 mph9.3 mph8.6 mph8.2 mph7.8 mph8.6 mph9 mph8.5 mph6.8 mph5.1 mph3.9 mph5.4 mph5.4 mph5.7 mph6.2 mph5.9 mph5.6 mph5.8 mph6.1 mph6.3 mph6.4 mph6.3 mph6 mph5.8 mph5.2 mph4.4 mph1.6 mph2.5 mph4.2 mph6.2 mph6.7 mph6.7 mph6.5 mph5.7 mph3.7 mph2.4 mph2.1 mph2.1 mph1.6 mph1 mph2.2 mph2.1 mph2.3 mph1.9 mph1.5 mph1 mph1.2 mph1.3 mph
Wind
Direction
27°
NNE
32°
NNE
39°
NE
42°
NE
41°
NE
55°
NE
62°
ENE
63°
ENE
55°
NE
31°
NNE
357°
N
348°
NNW
353°
N
355°
N
351°
N

N
10°
N
11°
N
13°
NNE
15°
NNE
11°
N
13°
NNE
10°
N
15°
NNE
14°
NNE

N
348°
NNW
250°
WSW
243°
WSW
243°
WSW
239°
WSW
231°
SW
228°
SW
234°
SW
241°
WSW
285°
WNW
305°
NW
314°
NW
330°
NNW
13°
NNE
75°
ENE
73°
ENE
64°
ENE
43°
NE
36°
NE

N

N
11°
N

Daily Forecast

Date High Low Precip. Humidity
Today
Jan 20

Clear
69 °F
56 °F
0%
31%
Thursday
Jan 21

Clear
68 °F
55 °F
0%
25%
Friday
Jan 22

Rain
58 °F
50 °F
28%
49%
Saturday
Jan 23

Rain
51 °F
47 °F
74%
62%
Sunday
Jan 24

Clear
57 °F
44 °F
0%
38%
Monday
Jan 25

Rain
50 °F
41 °F
100%
49%
Tuesday
Jan 26

Rain
54 °F
42 °F
87%
43%
Wednesday
Jan 27

Clouds
58 °F
47 °F
10%
49%
Thursday
Jan 28

Clear
64 °F
51 °F
0%
30%
Friday
Jan 29

Rain
62 °F
49 °F
100%
31%
Saturday
Jan 30

Rain
56 °F
51 °F
100%
74%
Sunday
Jan 31

Clouds
59 °F
49 °F
0%
47%
Monday
Feb 1

Clear
61 °F
49 °F
0%
39%
Tuesday
Feb 2

Clouds
62 °F
51 °F
0%
32%
Wednesday
Feb 3

Clear
62 °F
50 °F
0%
34%
Thursday
Feb 4

Clear
63 °F
50 °F
0%
36%


Temperature 8-14 Day Outlook



Precipitation 8-14 Day Outlook




Quick Links
Casitas Lake News
Casitas Lake Photos
Casitas Lake Videos




About Us
Contact Us
Site Map
Search Site
Advertise With Us
   
Casitas.USLakes.info
THE CASITAS LAKE WEBSITE

Copyright 2021, Lakes Online
Privacy    |    Legal